Presure
119 115 139 112 112 111 98 97 102 97 101 107 110 109 104 116 121 121 121 122 124 125 117 118 120 111 108 108 111 116 104 112 115 111 115 117 120 114 111 119 111 123 113 121 101
122 113 113 116 118 117 115 115 112 110 111 116 119 124 118 106 113 119 119 119 111 116 117 116 109 110 100 103 114 114 119 114 111 112 111 124 126 125 124 122 106 116 123 122 126
132 125 115 112 116 111 105 105 107 110 100 101 103 98 102 105 104 98 105 108 108 113 114 106 110 118 126 111 111 112 105 115 122 116 118 116 116 116 119 115 114 124 135 116 117
131 150 123 118 112 101 121 98 106 99 98 102 94 115 115 103 103 111 116 115 118 123 126 115 107 106 108 109 125 125 115 120 138 111 118 125 118 110 131 130 112 120 150 145 111
125 131 127 117 127 120 117 119 117 118 114 102 97 99 105 120 108 119 124 114 109 104 97 106 107 108 112 122 113 123 118 113 123 117 134 126 111 133 134 134 139 116 109 102 103
112 125 125 130 126 142 108 122 106 120 115 111 109 130 109 117 110 110 106 130 109 108 130 132 116 111 121 153 124 131 149 129 131 118 118 120 130 109 119 120 134 108 125 117 111
122 111 124 125 119 117 121 121 116 113 110 123 106 108 97 109 108 107 107 107 112 113 115 105 133 123 121 156 114 111 118 160 123 118 127 115 111 126 126 151 114 108 106 83 95
133 128 111 126 124 116 113 117 126 122 145 107 103 119 123 118 109 115 125 107 127 105 130 117 125 127 119 123 136 123 123 140 158 155 136 125 129 117 107 113 99 108 108 134 142
139 116 144 127 148 124 113 124 117 124 129 131 119 116 104 108 113 112 109 101 118 116 119 113 116 129 125 149 121 123 142 124 126 135 113 109 106 101 106 100 112 129 110 121 86
109 153 109 111 117 156 117 125 104 111 113 116 108 107 107 105 103 111 107 113 116 113 121 111 123 125 119 122 142 127 129 151 115 106 109 142 128 108 113 121 109 110 114 94 101
120 98 124 152 122 129 112 120 106 153 123 106 114 114 134 116 121 111 116 109 111 143 122 147 125 118 144 123 115 147 110 116 161 116 128 97 108 114 111 129 117 145 115 132 106
153 130 132 154 123 120 114 113 128 118 156 145 119 119 108 102 125 107 123 142 107 140 119 150 135 126 148 145 127 119 107 125 121 136 143 116 127 111 123 164 100 159 160 136 152
127 141 123 136 137 113 149 112 137 116 120 119 144 132 121 125 136 132 118 128 145 125 136 139 116 129 128 121 116 110 119 124 122 92 116 131 97 100 107 149 108 108 123 149 147
150 161 143 151 124 147 143 122 147 158 123 151 115 148 122 117 110 120 137 118 113 116 147 142 126 111 107 115 115 110 133 138 124 127 151 145 125 85 147 118 69 144 144 128 141
139 132 125 149 142 134 153 153 148 117 107 97 131 113 139 119 117 112 141 154 115 118 148 115 109 117 115 141 118 146 158 145 124 128 150 128 142 71 84 116 77 79 85 75 165
158 130 157 132 135 145 156 133 139 103 150 154 106 132 152 139 104 115 121 129 126 137 118 135 127 152 131 137 141 127 128 141 147 160 119 132 153 155 166 140 94 101 164 115 170
110 150 154 150 150 134 154 158 136 142 121 152 137 143 128 141 125 145 110 136 134 155 126 124 124 126 122 126 146 138 151 154 145 150 158 134 124 158 160 156 158 156 165 170 136
145 143 155 153 144 156 150 149 139 147 146 144 158 134 138 142 140 149 153 122 150 160 116 143 153 137 157 156 153 152 134 163 163 148 159 155 167 160 157 164 161 162 166 180 178
153 145 145 144 138 144 149 149 138 149 150 156 137 111 126 135 153 128 101 139 143 139 143 151 143 154 147 131 134 164 142 149 155 168 172 150 158 165 167 166 168 174 193 183 193
165 159 155 122 117 151 150 147 158 127 152 153 135 146 131 148 146 135 138 147 146 145 150 134 145 147 141 137 137 159 162 147 150 161 168 162 157 154 168 178 206 179 187 247 225
160 162 162 162 160 152 161 154 146 154 143 144 139 141 134 103 145 142 148 140 124 149 156 130 147 145 134 155 155 152 143 149 149 152 165 181 179 165 176 213 234 236 161 237 191
198 163 161 161 178 161 164 166 166 159 151 150 154 158 157 159 129 156 158 147 152 150 156 162 199 131 155 143 146 163 166 164 170 165 227 221 217 69 76 87 226 287 253 243 90
185 180 190 190 173 196 162 158 157 150 155 149 132 158 147 143 149 141 139 141 153 203 169 204 200 203 191 155 167 167 167 190 213 178 196 240 268 237 255 297 298 294 278 79 235
183 187 186 190 188 193 194 192 178 100 172 164 175 166 140 149 156 162 175 189 196 178 194 185 192 194 189 199 199 210 229 178 191 201 204 184 186 251 60 172 297 183 303 305 307
174 176 178 184 201 194 181 180 183 185 194 193 183 192 183 173 199 189 208 195 175 179 189 208 235 223 211 233 228 166 216 276 230 305 225 296 295 283 298 207 219 352 392 495 466
183 186 185 167 177 180 185 179 175 201 192 138 195 179 191 195 169 161 211 216 207 179 191 256 209 191 251 246 172 273 270 266 255 298 290 287 299 294 291 314 337 331 338 253 442
161 171 176 174 176 177 184 183 184 187 162 128 185 190 183 224 224 212 224 193 230 227 245 238 249 260 251 242 250 279 261 264 292 280 279 287 292 338 328 326 318 325 326 338 359
Wind_Speed
55 50 53 44 42 40 32 30 31 27 26 26 26 24 21 25 27 27 27 26 24 24 23 23 24 26 26 27 28 29 27 31 31 30 33 32 32 28 29 34 28 30 24 24 32
59 52 49 48 47 44 41 39 36 34 32 31 30 30 28 26 28 28 28 28 26 27 26 27 27 27 26 28 32 32 33 32 32 32 35 36 37 35 36 35 30 30 33 30 29
64 61 53 47 47 43 39 37 36 35 31 31 31 29 28 29 29 28 29 29 29 30 30 29 29 30 32 34 34 35 31 35 38 37 39 36 37 37 37 34 36 42 45 32 33
66 65 60 54 47 42 49 38 39 35 34 35 28 36 35 31 32 32 34 34 35 38 37 35 30 34 34 35 40 40 38 40 42 39 44 44 39 33 42 46 36 38 48 50 35
69 67 61 56 57 52 49 47 44 45 43 37 32 33 34 39 36 39 39 36 35 34 29 34 37 38 40 42 41 45 41 40 42 44 49 48 39 49 44 54 45 35 34 39 38
64 68 65 64 59 61 47 52 45 48 45 42 41 47 38 42 38 41 38 44 38 39 45 46 43 42 47 47 50 48 52 49 46 46 46 50 52 38 44 44 49 35 42 43 46
71 63 67 66 61 57 55 55 51 49 46 50 42 42 39 44 43 43 41 41 42 43 45 40 51 49 50 51 49 45 50 59 50 48 56 46 45 50 48 54 37 35 35 33 42
79 74 64 69 66 60 55 57 58 56 61 48 45 51 49 49 47 47 51 43 51 43 54 50 54 55 52 53 55 55 53 61 65 63 63 54 63 49 39 42 35 40 42 58 57
86 70 78 71 77 66 59 63 58 60 60 60 57 53 45 46 48 48 47 39 53 53 54 52 56 59 59 64 56 57 66 58 59 56 48 47 49 45 42 37 47 57 45 52 44
70 91 65 64 65 80 64 67 51 58 58 58 53 51 51 45 46 48 46 53 55 54 58 52 62 59 56 62 70 65 65 70 52 43 45 74 71 55 47 48 43 53 55 41 51
84 59 80 90 71 77 63 64 58 75 64 53 60 59 65 60 61 57 60 54 54 64 63 66 67 58 70 63 56 74 48 57 79 56 70 42 61 74 51 64 54 77 53 68 55
99 91 87 96 72 69 63 64 72 63 76 75 63 65 55 52 65 57 66 72 49 71 63 74 71 70 78 75 67 61 47 65 70 72 80 58 76 74 74 89 54 92 88 67 79
96 96 82 92 88 69 89 64 78 63 66 66 75 74 70 69 73 70 66 67 75 72 71 75 62 67 75 67 63 55 63 62 67 33 63 70 36 49 63 84 60 46 62 80 80
105 110 96 97 87 95 89 73 87 90 72 79 67 82 71 68 64 69 78 70 65 68 84 81 77 62 55 66 65 54 77 85 72 76 92 85 76 2 96 56 18 92 73 56 77
101 87 92 100 95 91 101 98 94 71 59 63 84 68 81 73 72 67 82 88 70 73 88 69 60 74 67 85 69 93 101 92 72 76 95 72 89 19 32 66 32 32 34 29 106
120 93 115 98 99 99 105 87 86 61 89 90 68 84 91 86 61 68 74 78 83 85 68 89 79 98 93 90 96 84 84 98 102 111 69 77 98 111 118 92 47 72 112 70 117
73 111 115 110 107 97 106 106 91 93 78 94 91 89 89 90 88 90 70 92 92 102 84 88 80 89 87 91 105 101 108 110 103 105 113 77 87 116 115 105 120 112 121 121 88
107 104 122 116 101 117 108 106 98 101 98 95 104 85 91 91 93 97 103 86 101 111 81 101 108 105 116 116 112 109 88 121 120 109 114 119 126 120 111 111 113 118 122 139 129
132 111 111 108 94 98 109 111 103 107 108 111 92 76 94 93 104 94 65 98 101 102 105 112 105 116 110 104 104 129 111 117 120 132 132 112 119 138 120 115 119 133 148 140 148
141 135 131 88 78 119 115 108 123 91 115 114 99 101 98 104 99 94 103 110 111 112 121 105 112 116 115 112 114 129 131 102 111 122 127 120 115 130 130 132 154 135 144 116 130
131 137 137 137 133 121 137 126 106 121 106 105 105 103 99 51 107 104 112 103 84 126 133 106 118 117 108 130 131 127 108 113 106 112 126 145 141 163 133 139 139 135 85 125 84
127 141 135 135 139 142 137 138 138 131 120 118 124 126 122 124 86 121 125 118 130 127 135 140 134 106 130 121 123 142 141 137 144 129 136 151 131 24 32 53 141 100 118 122 35
128 124 129 127 125 124 109 129 127 114 124 114 93 127 107 104 110 100 103 110 131 120 132 118 121 123 138 126 144 147 144 142 140 147 141 130 102 121 117 96 97 99 97 19 111
127 124 124 125 124 124 121 128 138 51 139 138 142 142 93 109 123 139 133 125 120 123 121 121 126 127 132 128 135 128 120 148 158 149 130 111 71 114 6 51 98 58 104 105 103
113 115 117 119 126 122 117 117 117 118 122 122 116 120 116 101 123 119 122 118 121 122 125 115 96 102 109 101 105 128 136 94 97 100 130 97 93 100 97 61 67 86 75 51 53
130 128 126 101 118 119 121 118 107 120 118 93 120 112 117 116 90 89 117 111 119 118 127 85 114 122 80 87 130 92 95 96 97 99 99 101 97 101 99 92 85 86 86 51 40
97 111 123 120 119 115 123 123 120 120 103 72 114 115 107 104 102 106 104 109 91 93 84 90 80 80 78 85 90 96 95 98 100 100 103 101 101 85 88 88 87 85 79 77 66
Wind_Direction
226 227 220 227 225 223 222 222 222 224 229 236 240 242 245 248 251 254 258 264 267 269 263 263 265 261 267 271 273 270 287 285 285 288 288 287 289 293 295 298 302 307 302 290 310
226 230 229 228 228 228 228 228 226 226 231 238 243 246 247 247 253 256 258 263 260 262 261 262 262 266 276 277 275 277 278 281 285 285 288 295 294 298 298 298 304 306 307 308 309
226 228 230 230 229 227 225 226 227 228 228 228 231 234 237 242 246 247 252 257 258 262 263 267 269 275 277 276 278 281 285 284 286 287 287 289 294 298 299 300 304 305 307 310 308
227 226 230 230 233 233 233 234 230 234 235 234 241 241 243 244 249 256 260 259 262 266 268 269 275 275 274 277 278 280 281 284 290 292 291 292 292 296 296 294 304 306 307 308 306
228 228 229 231 232 233 234 234 235 237 237 240 246 247 247 251 252 257 257 261 264 264 274 272 272 276 276 278 278 280 279 285 287 288 291 292 296 295 297 295 301 307 305 304 301
231 230 229 230 231 232 233 236 234 238 239 240 243 245 247 250 252 255 259 262 264 267 270 272 271 274 278 290 279 283 294 284 289 284 285 289 290 297 296 298 300 301 305 303 300
231 231 231 230 232 233 235 235 237 238 239 243 244 245 253 251 250 254 257 262 266 268 268 277 275 272 273 289 282 285 284 298 285 284 286 286 291 289 291 298 297 300 297 295 293
231 232 232 233 233 233 236 237 238 239 242 240 242 246 248 250 252 255 259 262 265 268 270 271 273 274 274 276 283 280 282 288 296 293 287 289 288 289 292 293 300 297 293 295 294
233 231 236 235 236 237 235 236 238 240 243 244 245 247 250 253 256 259 260 264 262 263 266 270 270 275 275 282 277 281 284 285 287 291 289 290 288 283 289 290 293 297 291 299 303
228 235 230 231 235 241 236 239 242 242 243 245 250 252 253 258 259 261 260 262 263 267 267 273 270 276 277 277 279 282 284 290 289 288 289 291 294 285 290 294 293 294 292 288 287
235 226 238 239 235 241 238 239 243 245 243 251 250 251 252 254 255 261 261 268 269 269 267 270 272 274 277 278 281 281 287 288 293 289 290 286 289 288 289 295 300 294 298 296 283
236 235 239 240 236 237 237 238 244 244 248 248 252 252 257 262 256 263 261 264 268 267 268 272 270 275 276 276 281 283 281 283 287 287 288 291 294 288 293 298 289 301 300 304 301
234 238 236 238 241 237 245 238 246 243 246 249 253 253 255 257 259 260 264 267 267 270 273 272 275 277 278 280 278 279 284 283 282 293 286 290 303 291 291 298 295 300 296 296 298
239 237 240 244 240 245 247 242 249 251 248 253 250 256 257 258 260 263 265 267 266 271 273 273 276 275 272 279 280 274 281 285 284 286 290 292 288 99 297 304 314 297 298 297 303
238 241 238 244 242 244 248 250 251 247 241 245 255 256 258 260 261 261 267 273 269 271 277 274 274 278 277 283 280 283 289 287 286 288 287 290 288 295 290 297 283 295 300 309 304
239 238 241 239 242 247 250 247 251 237 254 254 252 259 263 261 258 264 266 268 270 273 271 274 275 283 279 282 281 282 284 284 286 291 293 289 291 292 296 297 306 289 302 304 305
241 243 244 248 249 244 250 254 250 254 247 258 255 259 260 263 263 269 264 267 270 278 272 276 276 278 280 280 282 280 287 288 287 290 291 294 291 293 295 298 299 302 303 304 305
244 245 244 248 249 251 252 254 250 257 259 258 260 258 258 265 266 271 273 268 277 280 273 278 283 279 284 284 283 285 285 286 287 285 286 292 293 292 293 296 298 300 302 302 302
240 244 249 249 249 250 252 253 250 257 258 260 259 254 256 260 269 265 261 271 273 272 275 281 279 282 278 279 281 287 284 285 286 289 290 292 294 294 296 297 299 300 298 301 302
238 241 243 247 250 251 252 253 252 252 259 261 253 262 256 267 267 267 267 275 275 275 279 275 276 278 279 278 281 284 285 287 289 288 288 290 294 293 295 300 296 300 301 292 297
242 244 244 246 249 252 250 252 254 256 254 257 258 259 262 269 266 270 271 274 274 276 278 273 274 275 277 280 282 283 287 288 291 293 293 291 293 293 299 293 294 295 299 296 299
243 245 248 249 248 251 252 252 252 255 256 259 262 264 265 266 267 269 269 270 274 275 277 278 277 278 276 279 280 280 281 284 287 290 291 292 296 316 312 296 295 292 293 296 292
243 245 246 249 250 252 249 252 255 255 259 258 262 263 260 260 266 269 273 271 273 279 277 280 278 279 278 278 278 281 283 285 285 290 289 291 291 289 291 295 294 293 291 318 297
245 246 249 250 251 253 254 253 252 262 257 263 261 264 266 264 267 269 271 275 277 272 280 276 279 278 277 281 281 284 289 286 286 288 291 291 298 290 280 295 294 295 293 292 290
249 249 249 251 250 253 254 255 256 257 259 262 263 266 265 268 271 273 275 275 273 275 278 279 283 281 279 286 286 284 284 300 294 311 293 303 304 300 301 295 294 302 307 296 294
248 248 250 251 255 257 257 258 257 258 262 258 263 261 267 270 271 273 274 274 274 273 278 295 279 281 295 293 282 307 304 299 293 309 304 303 306 303 303 307 309 308 308 307 301
242 249 250 252 255 257 258 259 261 262 262 266 267 268 269 270 273 270 276 273 285 284 293 290 295 303 300 293 298 310 300 301 310 307 305 305 306 310 309 308 307 307 310 311 318